Location: Forst
(46.9333°N, 15.4333°E)
Time: 07:12:43
(UTC+00:00)

Lacrosse 5 rocket - Pass Details

Date: 22 April 2021
Orbit: 460 x 634 km, 57.0° (Epoch: 12 May)

Event Time Altitude Azimuth Distance (km) Brightness Sun altitude
Rises 20:42:33 0° 308° (NW) 2,758 6.2 -23.4°
Reaches altitude 10° 20:44:54 10° 317° (NW) 1,890 5.1 -23.7°
Maximum altitude 20:48:52 35° 24° (NNE) 977 2.8 -24.1°
Enters shadow 20:49:55 30° 54° (NE) 1,076 2.7 -24.2°
